Terminal Aerodrome Forecast
Issued by NWS La Crosse, WI

Home | Current Version | Previous Version | Text Only | Print | Product List | Glossary On
Versions: 1 2 3 4 5 6 7 8 9 10 11 12 13 14 15 16 17 18 19 20 21 22 23 24 25 26 27 28 29 30 31 32 33 34 35 36 37 38 39 40
000
FTUS43 KARX 011721
TAFLSE
TAF
KLSE 011721Z 0118/0218 10005KT P6SM BKN140
     FM012300 VRB04KT P6SM SCT150
     FM021000 VRB03KT 4SM BR SCT250
     FM021400 13006KT P6SM SCT040=

USA.gov is the U.S. government's official web portal to all federal, state and local government web resources and services.